Content
SEND FEEDBACK

Daily
Averages
Monthly
Summary
Netherlands

MAASTRICHT, NETHERLANDS


Home > Europe > Netherlands
Elevation: 380 feet     Latitude: 50 55N     Longitude: 005 47E

WEATHER
 
SELECT A DAY
Number of Records: 302,840;   Date Range: 7/1/96 - 9/8/14
 
SHARE

PRINT THIS DATA

[ ← Previous Day ]
WEATHER ALMANAC - JANUARY 23, 2013
[ Next Day → ]
[ °C ]   °F
Weather ElementAverageHighLow
Temperature25.9 °F30.2 °F (12:55 pm)17.6 °F (10:55 pm)
Dewpoint24.1 °F26.6 °F (12:55 am)17.6 °F (10:25 pm)
Humidity92.9 %100 % (1:25 am)80 % (4:00 pm)
Barometer29.77 in29.86 in (10:00 pm)29.71 in (12:55 am)
Wind Speed5.5 mph8.1 mph (8:55 am)
Weather ElementAverage
Visibility1.7 mi
Wind DirectionENE (59.1 °)

Weather ElementTotal
Precipitation---
Heating Degree Days41.1 (Base 65)
Averaged from 55 records on January 23, 2013
WEATHER CONDITIONS BREAKOUT
WIND DIRECTION BREAKOUT
WEATHER BY HOUR - JANUARY 23, 2013
[ °C ]   °F
Local TimeTemperatureDewpointHumidityBarometerVisibilityWind DirectionWind SpeedGust SpeedPrecipitationEventsConditions
12:55 AM28.4 °F26.6 °F93 %29.71 in1.6 miNE (50°)4.6 mphOvercast
1:00 AM28.0 °F26.0 °F89 %29.75 in1.0 miNE (50°)4.5 mphMist
1:25 AM26.6 °F26.6 °F100 %29.71 in1.6 miNE (40°)4.6 mphOvercast
1:55 AM26.6 °F26.6 °F100 %29.71 in1.6 miNE (40°)5.8 mphOvercast
2:25 AM26.6 °F24.8 °F93 %29.71 in1.6 miNE (50°)5.8 mphOvercast
2:55 AM26.6 °F24.8 °F93 %29.71 in1.6 miNE (50°)5.8 mphOvercast
3:25 AM26.6 °F24.8 °F93 %29.74 in1.6 miNE (50°)5.8 mphOvercast
3:55 AM26.6 °F24.8 °F93 %29.71 in1.5 miNE (50°)5.8 mphOvercast
4:00 AM27.0 °F26.0 °F93 %29.77 in1.0 miNE (50°)4.5 mphMist
4:25 AM26.6 °F26.6 °F100 %29.74 in1.5 miNE (50°)6.9 mphOvercast
4:55 AM26.6 °F26.6 °F100 %29.74 in1.5 miNE (50°)5.8 mphOvercast
5:25 AM26.6 °F26.6 °F100 %29.74 in1.5 miNE (40°)6.9 mphOvercast
5:55 AM26.6 °F24.8 °F93 %29.74 in1.5 miNE (40°)4.6 mphOvercast
6:25 AM26.6 °F24.8 °F93 %29.74 in1.5 miNE (40°)6.9 mphOvercast
6:55 AM26.6 °F26.6 °F100 %29.74 in1.6 miNE (50°)4.6 mphOvercast
7:00 AM27.0 °F26.0 °F96 %29.78 in1.0 miNE (40°)4.5 mphMist
7:25 AM26.6 °F26.6 °F100 %29.74 in1.6 miNE (50°)3.5 mphOvercast
7:55 AM26.6 °F26.6 °F100 %29.74 in1.6 miNE (40°)5.8 mphOvercast
8:25 AM26.6 °F26.6 °F100 %29.74 in1.4 miNNE (30°)5.8 mphOvercast
8:55 AM28.4 °F26.6 °F93 %29.74 in1.4 miNE (40°)8.1 mphOvercast
9:25 AM26.6 °F26.6 °F100 %29.77 in1.4 miNE (40°)6.9 mphOvercast
9:55 AM24.8 °F24.8 °F100 %29.77 in1.4 miNE (40°)6.9 mphScattered Clouds
10:00 AM25.0 °F24.0 °F95 %29.81 in1.0 miNE (50°)4.5 mphMist
10:25 AM24.8 °F24.8 °F100 %29.77 in1.3 miNE (40°)4.6 mphScattered Clouds
10:55 AM26.6 °F24.8 °F93 %29.77 in1.5 miNNE (30°)5.8 mphMostly Cloudy
11:25 AM26.6 °F24.8 °F93 %29.77 in1.7 miNNE (30°)4.6 mphOvercast
11:55 AM28.4 °F24.8 °F86 %29.80 in1.9 miNE (40°)3.5 mphOvercast
12:25 PM28.4 °F26.6 °F93 %29.77 inNE (50°)5.8 mphOvercast
12:55 PM30.2 °F26.6 °F86 %29.77 inENE (60°)1.2 mphOvercast
1:00 PM30.0 °F26.0 °F81 %29.82 in2.0 miCalmMist
1:25 PM30.2 °F26.6 °F86 %29.77 inNW (320°)2.3 mphOvercast
1:55 PM30.2 °F26.6 °F86 %29.77 inNorth (350°)4.6 mphOvercast
2:25 PM30.2 °F26.6 °F86 %29.77 inNorth (350°)4.6 mphOvercast
2:55 PM30.2 °F26.6 °F86 %29.77 in2.5 miNE (40°)6.9 mphOvercast
3:25 PM30.2 °F26.6 °F86 %29.77 in2.8 miNNE (30°)6.9 mphOvercast
3:55 PM30.2 °F26.6 °F86 %29.77 in2.8 miNNE (30°)6.9 mphOvercast
4:00 PM30.0 °F26.0 °F80 %29.82 in3.0 miNE (40°)6.7 mphMist
4:25 PM28.4 °F24.8 °F86 %29.77 inNE (50°)6.9 mphMist
4:55 PM26.6 °F23.0 °F86 %29.80 inNE (50°)4.6 mphScattered Clouds
5:25 PM24.8 °F23.0 °F93 %29.80 inNE (40°)6.9 mphMostly Cloudy
5:55 PM24.8 °F23.0 °F93 %29.80 inNNE (30°)6.9 mphMostly Cloudy
6:25 PM24.8 °F21.2 °F86 %29.80 inNNE (30°)8.1 mphMist
6:55 PM23.0 °F21.2 °F93 %29.80 inNE (40°)4.6 mphPartly Cloudy
7:00 PM22.0 °F20.0 °F89 %29.84 in2.0 miNE (40°)6.7 mphMist
7:25 PM21.2 °F19.4 °F93 %29.80 inNE (40°)6.9 mphMist
7:55 PM21.2 °F19.4 °F93 %29.80 in1.9 miNE (50°)6.9 mphMist
8:25 PM21.2 °F19.4 °F93 %29.80 in1.8 miNE (50°)6.9 mphMostly Cloudy
8:55 PM21.2 °F19.4 °F93 %29.80 in1.8 miNE (40°)5.8 mphOvercast
9:25 PM23.0 °F21.2 °F93 %29.80 in1.8 miNE (50°)5.8 mphOvercast
9:55 PM21.2 °F19.4 °F93 %29.83 in1.7 miNNE (30°)4.6 mphMist
10:00 PM21.0 °F20.0 °F94 %29.86 in2.0 miNE (40°)4.5 mphMist
10:25 PM19.4 °F17.6 °F93 %29.83 in1.7 miNE (50°)5.8 mphMist
10:55 PM17.6 °F17.6 °F100 %29.83 in1.6 miNE (40°)5.8 mphPartly Cloudy
11:25 PM19.4 °F17.6 °F93 %29.83 in1.7 miNNE (30°)4.6 mphPartly Cloudy
11:55 PM21.2 °F21.2 °F100 %29.80 in1.7 miNE (50°)5.8 mphOvercast
Hourly data recorded from EHBK, located miles away from Maastricht, Netherlands







STORIES FROM OUR PARTNERS